Weather History for KBKL - December, 2009

Change the Weather History Date:

Wednesday, December 30, 2009

  Actual Average Record
Temperature  
Mean Temperature 25 °F -  
Max Temperature 33 °F 35 °F 52 °F (2004)
Min Temperature 17 °F 24 °F 12 °F (2001)
Degree Days  
Heating Degree Days 40    
Moisture  
Dew Point 13 °F    
Average Humidity 61    
Maximum Humidity 72    
Minimum Humidity 44    
Precipitation  
Precipitation 0.00 in - - ()
Sea Level Pressure  
Sea Level Pressure 30.26 in    
Wind  
Wind Speed 9 mph (SSE)    
Max Wind Speed 15 mph    
Max Gust Speed 23 mph    
Visibility 10 miles    
Events      
Averages and records for this station are not official NWS values.
T = Trace of Precipitation, MM = Missing Value Source: NWS Daily Summary

Daily Weather History Graph

Daily Weather History Graph

Search for Another Location

Airport or City:

Trip Planner

Search our weather history database for the weather conditions in past years. The results will help you decide how hot, cold, wet, or windy it might be!

Date:

Astronomy

Dec. 30, 2009 Rise Set
Actual Time 7:53 AM EST 5:05 PM EST
Civil Twilight 7:21 AM EST 5:37 PM EST
Nautical Twilight 6:46 AM EST 6:12 PM EST
Astronomical Twilight 6:13 AM EST 6:45 PM EST
Moon 3:53 PM EST (12/30) 6:50 AM EST (12/30)
Length of Visible Light 10h 15m
Length of Day
9h 12m
Waxing Gibbous, 98% of the Moon is Illuminated
Dec 30
Waxing Gibbous
Dec 31
Full
Jan 7
Last Quarter
Jan 15
New
Jan 23
First Quarter

Hourly Weather History & Observations

Time (EST) Temp. Windchill Dew Point Humidity Pressure Visibility Wind Dir Wind Speed Gust Speed Precip Events Conditions
12:53 AM 17.1 °F 7.6 °F 8.1 °F 68% 30.46 in 10.0 mi SSE 6.9 mph - N/A   Clear
1:53 AM 17.1 °F 8.7 °F 8.1 °F 68% 30.45 in 10.0 mi SSE 5.8 mph - N/A   Clear
2:53 AM 17.1 °F 7.6 °F 8.1 °F 68% 30.45 in 10.0 mi SSE 6.9 mph - N/A   Clear
3:53 AM 17.1 °F 6.6 °F 8.1 °F 68% 30.44 in 10.0 mi SSE 8.1 mph - N/A   Clear
4:53 AM 17.1 °F 5.0 °F 8.1 °F 68% 30.42 in 10.0 mi South 10.4 mph - N/A   Clear
5:53 AM 17.1 °F 5.0 °F 9.0 °F 71% 30.41 in 10.0 mi South 10.4 mph - N/A   Clear
6:53 AM 18.0 °F 8.7 °F 9.0 °F 68% 30.40 in 10.0 mi SSE 6.9 mph - N/A   Clear
7:53 AM 18.0 °F 7.7 °F 9.0 °F 68% 30.38 in 10.0 mi SSE 8.1 mph - N/A   Clear
8:53 AM 19.9 °F 7.3 °F 10.0 °F 65% 30.33 in 10.0 mi SSE 12.7 mph 20.7 mph N/A   Clear
9:53 AM 21.9 °F 8.7 °F 10.9 °F 63% 30.33 in 10.0 mi South 15.0 mph 23.0 mph N/A   Clear
10:53 AM 24.1 °F 12.0 °F 12.0 °F 60% 30.31 in 10.0 mi South 13.8 mph 19.6 mph N/A   Clear
11:53 AM 25.0 °F 14.2 °F 12.0 °F 58% 30.27 in 10.0 mi SSE 11.5 mph 20.7 mph N/A   Overcast
12:53 PM 28.0 °F 18.1 °F 12.9 °F 53% 30.22 in 10.0 mi SSE 11.5 mph - N/A   Overcast
1:53 PM 30.0 °F 19.5 °F 12.9 °F 49% 30.18 in 10.0 mi SSE 13.8 mph 20.7 mph N/A   Mostly Cloudy
2:53 PM 32.0 °F 23.6 °F 12.0 °F 44% 30.14 in 10.0 mi SSE 10.4 mph 19.6 mph N/A   Mostly Cloudy
3:53 PM 32.0 °F 23.0 °F 12.9 °F 45% 30.14 in 10.0 mi SSE 11.5 mph - N/A   Overcast
4:53 PM 30.9 °F 22.2 °F 15.1 °F 52% 30.15 in 10.0 mi SSE 10.4 mph - N/A   Overcast
5:53 PM 32.0 °F 24.2 °F 15.1 °F 50% 30.12 in 10.0 mi SSE 9.2 mph - N/A   Overcast
6:53 PM 32.0 °F 22.1 °F 15.1 °F 50% 30.12 in 10.0 mi SSE 13.8 mph 20.7 mph N/A   Overcast
7:53 PM 32.0 °F 24.2 °F 16.0 °F 52% 30.12 in 10.0 mi SSE 9.2 mph - N/A   Overcast
8:53 PM 33.1 °F 23.4 °F 21.9 °F 64% 30.11 in 10.0 mi SSW 13.8 mph - N/A   Overcast
9:53 PM 33.1 °F 24.9 °F 24.1 °F 70% 30.09 in 10.0 mi South 10.4 mph - N/A   Overcast
10:53 PM 33.1 °F 25.5 °F 25.0 °F 72% 30.07 in 10.0 mi South 9.2 mph - N/A   Overcast
11:53 PM 33.1 °F 24.4 °F 25.0 °F 72% 30.06 in 10.0 mi South 11.5 mph - N/A   Overcast